Time,TemperatureF,DewpointF,PressureIn,WindDirection,WindDirectionDegrees,WindSpeedMPH,WindSpeedGustMPH,Humidity,HourlyPrecipIn,Conditions,Clouds,dailyrainin,SoftwareType,DateUTC
2013-10-22 00:22:00,54.0,38.0,30.12,NE,46,0.0,-999.0,55,8.68,,,-99.99,,2013-10-22 06:22:00,
2013-10-22 00:53:00,54.0,39.0,30.13,NE,46,0.0,-999.0,57,8.68,,,-99.99,,2013-10-22 06:53:00,
2013-10-22 01:22:00,52.0,39.0,30.13,NE,46,0.0,-999.0,60,8.68,,,-99.99,,2013-10-22 07:22:00,
2013-10-22 01:52:00,52.0,40.0,30.13,NE,46,0.0,-999.0,63,8.68,,,-99.99,,2013-10-22 07:52:00,
2013-10-22 02:22:00,52.0,40.0,30.14,NE,46,0.0,-999.0,63,8.68,,,-99.99,,2013-10-22 08:22:00,
2013-10-22 02:52:00,51.0,39.0,30.14,NE,46,0.0,-999.0,64,8.68,,,-99.99,,2013-10-22 08:52:00,
2013-10-22 03:21:00,50.0,39.0,30.14,NNE,28,0.0,-999.0,66,8.68,,,-99.99,,2013-10-22 09:21:00,
2013-10-22 03:54:00,50.0,39.0,30.14,NE,51,0.0,-999.0,65,8.68,,,-99.99,,2013-10-22 09:54:00,
2013-10-22 04:23:00,49.0,39.0,30.14,NE,51,0.0,-999.0,68,8.68,,,-99.99,,2013-10-22 10:23:00,
2013-10-22 04:53:00,48.0,39.0,30.14,NE,51,0.0,-999.0,70,8.68,,,-99.99,,2013-10-22 10:53:00,
2013-10-22 05:22:00,48.0,40.0,30.14,NE,51,0.0,-999.0,73,8.68,,,-99.99,,2013-10-22 11:22:00,
2013-10-22 05:52:00,47.0,39.0,30.16,NE,51,0.0,-999.0,75,8.68,,,-99.99,,2013-10-22 11:52:00,
2013-10-22 06:22:00,46.0,30.0,30.14,NE,51,0.0,-999.0,53,8.68,,,-99.99,,2013-10-22 12:22:00,
2013-10-22 06:42:00,46.0,29.0,30.14,NE,51,0.0,-999.0,52,8.68,,,-99.99,,2013-10-22 12:42:00,
2013-10-22 06:52:00,46.0,39.0,30.13,NE,51,0.0,-999.0,77,8.68,,,-99.99,,2013-10-22 12:52:00,
2013-10-22 07:21:00,46.0,29.0,30.13,NE,51,0.0,-999.0,51,8.68,,,-99.99,,2013-10-22 13:21:00,
2013-10-22 07:42:00,46.0,40.0,30.17,NE,51,0.0,-999.0,78,8.68,,,-99.99,,2013-10-22 13:42:00,
2013-10-22 07:53:00,46.0,39.0,30.18,NE,51,0.0,-999.0,77,8.68,,,-99.99,,2013-10-22 13:53:00,
2013-10-22 08:21:00,47.0,40.0,30.19,NE,51,0.0,-999.0,77,8.68,,,-99.99,,2013-10-22 14:21:00,
2013-10-22 08:52:00,50.0,41.0,30.20,NE,51,0.0,-999.0,70,8.68,,,-99.99,,2013-10-22 14:52:00,
2013-10-22 09:22:00,53.0,31.0,30.16,ENE,68,0.0,-999.0,42,8.68,,,-99.99,,2013-10-22 15:22:00,
2013-10-22 09:54:00,56.0,41.0,30.21,NE,35,3.0,-999.0,57,8.68,,,-99.99,,2013-10-22 15:54:00,
2013-10-22 10:23:00,59.0,41.0,30.21,NE,45,0.0,-999.0,52,8.68,,,-99.99,,2013-10-22 16:23:00,
2013-10-22 10:53:00,61.0,41.0,30.21,NE,45,0.0,-999.0,48,8.68,,,-99.99,,2013-10-22 16:53:00,
2013-10-22 11:22:00,64.0,42.0,30.21,NE,56,0.0,-999.0,44,8.68,,,-99.99,,2013-10-22 17:22:00,
2013-10-22 11:43:00,64.0,42.0,30.20,NE,56,0.0,-999.0,44,8.68,,,-99.99,,2013-10-22 17:43:00,
2013-10-22 11:52:00,64.0,41.0,30.20,NE,55,0.0,-999.0,43,8.68,,,-99.99,,2013-10-22 17:52:00,
2013-10-22 12:42:00,66.0,41.0,30.19,SSE,150,0.0,-999.0,40,8.68,,,-99.99,,2013-10-22 18:42:00,
2013-10-22 12:52:00,67.0,41.0,30.17,SE,141,0.0,-999.0,38,8.68,,,-99.99,,2013-10-22 18:52:00,
2013-10-22 13:22:00,68.0,41.0,30.16,NE,35,3.0,-999.0,37,8.68,,,-99.99,,2013-10-22 19:22:00,
2013-10-22 13:42:00,68.0,39.0,30.16,NNE,30,0.0,-999.0,35,8.68,,,-99.99,,2013-10-22 19:42:00,
2013-10-22 13:53:00,69.0,40.0,30.15,NE,39,0.0,-999.0,35,8.68,,,-99.99,,2013-10-22 19:53:00,
2013-10-22 14:22:00,70.0,40.0,30.13,NE,39,0.0,-999.0,33,8.68,,,-99.99,,2013-10-22 20:22:00,
2013-10-22 14:42:00,71.0,40.0,30.12,SE,146,0.0,-999.0,32,8.68,,,-99.99,,2013-10-22 20:42:00,
2013-10-22 14:52:00,72.0,39.0,30.12,NE,53,0.0,-999.0,30,8.68,,,-99.99,,2013-10-22 20:52:00,
2013-10-22 15:23:00,72.0,39.0,30.11,NE,45,0.0,-999.0,30,8.68,,,-99.99,,2013-10-22 21:23:00,
2013-10-22 15:44:00,72.0,38.0,30.12,SE,131,0.0,-999.0,29,8.68,,,-99.99,,2013-10-22 21:44:00,
2013-10-22 15:54:00,73.0,36.0,30.12,NNE,20,0.0,-999.0,26,8.68,,,-99.99,,2013-10-22 21:54:00,
2013-10-22 16:24:00,75.0,36.0,30.11,NE,35,4.0,-999.0,24,8.68,,,-99.99,,2013-10-22 22:24:00,
2013-10-22 16:44:00,74.0,35.0,30.10,NNE,32,0.0,-999.0,24,8.68,,,-99.99,,2013-10-22 22:44:00,
2013-10-22 16:54:00,74.0,34.0,30.10,NNE,30,0.0,-999.0,23,8.68,,,-99.99,,2013-10-22 22:54:00,
2013-10-22 17:23:00,73.0,35.0,30.10,NNE,30,2.0,-999.0,25,8.68,,,-99.99,,2013-10-22 23:23:00,
2013-10-22 18:11:00,72.0,34.0,30.09,NE,34,4.0,-999.0,25,8.68,,,-99.99,,2013-10-23 00:11:00,
2013-10-22 18:22:00,71.0,34.0,30.09,NE,34,0.0,-999.0,26,8.68,,,-99.99,,2013-10-23 00:22:00,
2013-10-22 18:52:00,69.0,35.0,30.06,NE,34,0.0,-999.0,29,8.68,,,-99.99,,2013-10-23 00:52:00,
2013-10-22 19:23:00,66.0,36.0,30.09,NE,34,0.0,-999.0,33,8.68,,,-99.99,,2013-10-23 01:23:00,
2013-10-22 19:42:00,66.0,36.0,30.09,NE,34,0.0,-999.0,33,8.68,,,-99.99,,2013-10-23 01:42:00,
2013-10-22 19:52:00,65.0,36.0,30.09,NE,34,0.0,-999.0,34,8.68,,,-99.99,,2013-10-23 01:52:00,
2013-10-22 20:22:00,63.0,36.0,30.09,NE,34,0.0,-999.0,36,8.68,,,-99.99,,2013-10-23 02:22:00,
2013-10-22 20:54:00,63.0,36.0,30.10,NE,34,0.0,-999.0,37,8.68,,,-99.99,,2013-10-23 02:54:00,
2013-10-22 21:22:00,61.0,37.0,30.09,NE,34,0.0,-999.0,41,8.68,,,-99.99,,2013-10-23 03:22:00,
2013-10-22 21:55:00,59.0,37.0,30.11,NE,34,0.0,-999.0,43,8.68,,,-99.99,,2013-10-23 03:55:00,
2013-10-22 22:14:00,58.0,37.0,30.11,NE,34,0.0,-999.0,45,8.68,,,-99.99,,2013-10-23 04:14:00,
2013-10-22 22:24:00,57.0,36.0,30.11,NE,34,0.0,-999.0,46,8.68,,,-99.99,,2013-10-23 04:24:00,
2013-10-22 22:54:00,57.0,37.0,30.11,NE,34,0.0,-999.0,47,8.68,,,-99.99,,2013-10-23 04:54:00,
2013-10-22 23:23:00,56.0,37.0,30.10,NE,34,0.0,-999.0,49,8.68,,,-99.99,,2013-10-23 05:23:00,
2013-10-22 23:52:00,55.0,38.0,30.10,NE,34,0.0,-999.0,52,8.68,,,-99.99,,2013-10-23 05:52:00,